Weather History for Qaanaaq Airport, Greenland

Change the Weather History Date:

Sunday, September 8, 2013

  Actual Average Record
Temperature  
Mean Temperature 32 °F -  
Max Temperature 37 °F - - ()
Min Temperature 28 °F - - ()
Degree Days  
Heating Degree Days 32    
Moisture  
Dew Point 25 °F    
Average Humidity 73    
Maximum Humidity 93    
Minimum Humidity 55    
Precipitation  
Precipitation 0.00 in - - ()
Sea Level Pressure  
Sea Level Pressure 29.59 in    
Wind  
Wind Speed 2 mph ()    
Max Wind Speed 6 mph    
Max Gust Speed -    
Visibility 6.2 miles    
Events      
T = Trace of Precipitation, MM = Missing Value Source: Averaged Metar Reports

Daily Weather History Graph

Daily Weather History Graph

Search for Another Location

Airport:

Trip Planner

Search our weather history database for the weather conditions in past years. The results will help you decide how hot, cold, wet, or windy it might be!

Date:

Astronomy

Sep. 08, 2013 Rise Set
Actual Time 5:33 AM ADT 9:31 PM ADT
Civil Twilight 3:02 AM ADT 11:52 PM ADT
Nautical Twilight Sun does not rise Sun does not rise
Astronomical Twilight Sun does not rise Sun does not rise
Moon 2:01 PM ADT (9/8) 5:36 PM ADT (9/8)
Length of Visible Light 20h 49m
Length of Day
15h 58m
Waxing Crescent, 11% of the Moon is Illuminated
Sep 8
Waxing Crescent
Sep 12
First Quarter
Sep 19
Full
Sep 27
Last Quarter
Oct 4
New

Hourly Weather History & Observations

Time (ADT) Temp. Windchill Dew Point Humidity Pressure Visibility Wind Dir Wind Speed Gust Speed Precip Events Conditions
12:20 AM 32.0 °F - 17.6 °F 55% 29.47 in 6.2 mi SSW 1.2 mph - N/A   Unknown
12:50 AM 30.2 °F - 21.2 °F 69% 29.47 in 6.2 mi SSW 1.2 mph - N/A   Unknown
1:20 AM 30.2 °F - 21.2 °F 69% 29.47 in 6.2 mi SSW 2.3 mph - N/A   Unknown
1:50 AM 30.2 °F - 21.2 °F 69% 29.50 in 6.2 mi SSW 1.2 mph - N/A   Unknown
2:20 AM 30.2 °F - 21.2 °F 69% 29.50 in 6.2 mi SW 1.2 mph - N/A   Unknown
2:50 AM 30.2 °F 26.7 °F 23.0 °F 75% 29.53 in 6.2 mi SSW 3.5 mph - N/A   Unknown
3:20 AM 32.0 °F 26.4 °F 21.2 °F 64% 29.53 in 6.2 mi NW 5.8 mph - N/A   Unknown
3:50 AM 32.0 °F - 21.2 °F 64% 29.53 in 6.2 mi NW 2.3 mph - N/A   Unknown
4:20 AM 32.0 °F 28.7 °F 23.0 °F 69% 29.56 in 6.2 mi NW 3.5 mph - N/A   Unknown
4:50 AM 32.0 °F - 24.8 °F 75% 29.56 in 6.2 mi NW 2.3 mph - N/A   Unknown
5:20 AM 32.0 °F - 23.0 °F 69% 29.56 in 6.2 mi NW 2.3 mph - N/A   Unknown
5:50 AM 32.0 °F - 23.0 °F 69% 29.59 in 6.2 mi NW 2.3 mph - N/A   Unknown
6:20 AM 32.0 °F - 21.2 °F 64% 29.59 in 6.2 mi NW 2.3 mph - N/A   Unknown
6:50 AM 32.0 °F - 23.0 °F 69% 29.59 in 6.2 mi NW 1.2 mph - N/A   Unknown
7:20 AM 32.0 °F - 21.2 °F 64% 29.62 in 6.2 mi NW 1.2 mph - N/A   Unknown
7:50 AM 32.0 °F - 23.0 °F 69% 29.62 in 6.2 mi Calm Calm - N/A   Unknown
8:20 AM 32.0 °F - 24.8 °F 75% 29.62 in 6.2 mi NW 2.3 mph - N/A   Unknown
8:50 AM 32.0 °F - 24.8 °F 75% 29.62 in 6.2 mi NW 2.3 mph - N/A   Unknown
9:20 AM 33.8 °F - 23.0 °F 65% 29.62 in 6.2 mi NW 1.2 mph - N/A   Unknown
9:50 AM 32.0 °F - 24.8 °F 75% 29.62 in 6.2 mi NW 2.3 mph - N/A   Unknown
10:20 AM 33.8 °F 30.8 °F 23.0 °F 65% 29.62 in 6.2 mi NW 3.5 mph - N/A   Unknown
10:50 AM 35.6 °F - 23.0 °F 60% 29.62 in 6.2 mi NE 1.2 mph - N/A   Unknown
11:20 AM 33.8 °F 30.8 °F 24.8 °F 70% 29.62 in 6.2 mi NE 3.5 mph - N/A   Unknown
11:50 AM 33.8 °F 30.8 °F 26.6 °F 75% 29.62 in 6.2 mi SE 3.5 mph - N/A   Unknown
12:20 PM 33.8 °F 30.8 °F 26.6 °F 75% 29.62 in 6.2 mi SE 3.5 mph - N/A   Unknown
12:50 PM 33.8 °F - 28.4 °F 81% 29.62 in 6.2 mi SE 2.3 mph - N/A   Unknown
1:20 PM 35.6 °F - 26.6 °F 70% 29.62 in 6.2 mi SE 2.3 mph - N/A   Unknown
1:50 PM 37.4 °F - 28.4 °F 70% 29.62 in 6.2 mi SE 2.3 mph - N/A   Unknown
2:20 PM 35.6 °F - 28.4 °F 75% 29.62 in 6.2 mi SE 2.3 mph - N/A   Unknown
2:50 PM 35.6 °F - 28.4 °F 75% 29.59 in 6.2 mi SE 2.3 mph - N/A   Unknown
3:20 PM 35.6 °F - 26.6 °F 70% 29.59 in 6.2 mi SE 2.3 mph - N/A   Unknown
3:50 PM 33.8 °F - 26.6 °F 75% 29.59 in 6.2 mi Calm Calm - N/A   Unknown
4:20 PM 33.8 °F - 26.6 °F 75% 29.59 in 6.2 mi SE 2.3 mph - N/A   Unknown
4:50 PM 33.8 °F - 26.6 °F 75% 29.59 in 6.2 mi SE 1.2 mph - N/A   Unknown
5:20 PM 33.8 °F - 26.6 °F 75% 29.59 in 6.2 mi SE 1.2 mph - N/A   Unknown
5:50 PM 33.8 °F - 26.6 °F 75% 29.59 in 6.2 mi SE 2.3 mph - N/A   Unknown
6:20 PM 33.8 °F 30.8 °F 26.6 °F 75% 29.59 in 6.2 mi SE 3.5 mph - N/A   Unknown
6:50 PM 32.0 °F 28.7 °F 26.6 °F 80% 29.59 in 6.2 mi SE 3.5 mph - N/A   Unknown
7:20 PM 32.0 °F - 24.8 °F 75% 29.59 in 6.2 mi ESE 2.3 mph - N/A   Unknown
7:50 PM 32.0 °F 28.7 °F 26.6 °F 80% 29.59 in 6.2 mi ESE 3.5 mph - N/A   Unknown
8:20 PM 32.0 °F - 26.6 °F 80% 29.59 in 6.2 mi Variable 1.2 mph - N/A   Unknown
8:50 PM 32.0 °F - 26.6 °F 80% 29.59 in 6.2 mi Calm Calm - N/A   Unknown
9:20 PM 30.2 °F - 26.6 °F 86% 29.59 in 6.2 mi Variable 1.2 mph - N/A   Unknown
9:50 PM 30.2 °F - 24.8 °F 80% 29.62 in 6.2 mi ESE 2.3 mph - N/A   Unknown
10:20 PM 30.2 °F - 24.8 °F 80% 29.62 in 6.2 mi ESE 2.3 mph - N/A   Unknown
10:50 PM 28.4 °F 23.3 °F 26.6 °F 93% 29.62 in - SE 4.6 mph - N/A   Mist
11:20 PM 28.4 °F - 26.6 °F 93% 29.62 in 6.2 mi SE 1.2 mph - N/A   Unknown
11:50 PM 28.4 °F - 26.6 °F 93% 29.62 in 6.2 mi SE 2.3 mph - N/A   Unknown